#datetime,building,power
2022-04-11T00:00:00,hld,6.70
2022-04-11T00:01:00,hld,6.76
2022-04-11T00:02:00,hld,6.58
2022-04-11T00:03:00,hld,6.52
2022-04-11T00:04:00,hld,6.56
2022-04-11T00:05:00,hld,6.59
2022-04-11T00:06:00,hld,6.59
2022-04-11T00:07:00,hld,6.49
2022-04-11T00:08:00,hld,5.98
2022-04-11T00:09:00,hld,6.02
2022-04-11T00:10:00,hld,5.62
2022-04-11T00:11:00,hld,5.69
2022-04-11T00:12:00,hld,5.48
2022-04-11T00:13:00,hld,5.49
2022-04-11T00:14:00,hld,5.43
2022-04-11T00:15:00,hld,5.74
2022-04-11T00:16:00,hld,5.42
2022-04-11T00:17:00,hld,5.38
2022-04-11T00:18:00,hld,5.34
2022-04-11T00:19:00,hld,5.40
2022-04-11T00:20:00,hld,5.43
2022-04-11T00:21:00,hld,5.43
2022-04-11T00:22:00,hld,5.43
2022-04-11T00:23:00,hld,5.44
2022-04-11T00:24:00,hld,6.06
2022-04-11T00:25:00,hld,5.45
2022-04-11T00:26:00,hld,5.42
2022-04-11T00:27:00,hld,5.44
2022-04-11T00:28:00,hld,5.44
2022-04-11T00:29:00,hld,5.43
2022-04-11T00:30:00,hld,5.47
2022-04-11T00:31:00,hld,5.46
2022-04-11T00:32:00,hld,5.40
2022-04-11T00:33:00,hld,5.37
2022-04-11T00:34:00,hld,5.52
2022-04-11T00:35:00,hld,5.59
2022-04-11T00:36:00,hld,5.56
2022-04-11T00:37:00,hld,5.54
2022-04-11T00:38:00,hld,5.58
2022-04-11T00:39:00,hld,5.61
2022-04-11T00:40:00,hld,5.62
2022-04-11T00:41:00,hld,5.58
2022-04-11T00:42:00,hld,5.46
2022-04-11T00:43:00,hld,5.69
2022-04-11T00:44:00,hld,5.45
2022-04-11T00:45:00,hld,5.44
2022-04-11T00:46:00,hld,5.45
2022-04-11T00:47:00,hld,5.40
2022-04-11T00:48:00,hld,5.46
2022-04-11T00:49:00,hld,5.45
2022-04-11T00:50:00,hld,5.47
2022-04-11T00:51:00,hld,5.42
2022-04-11T00:52:00,hld,5.49
2022-04-11T00:53:00,hld,6.00
2022-04-11T00:54:00,hld,5.66
2022-04-11T00:55:00,hld,14.20
2022-04-11T00:56:00,hld,14.05
2022-04-11T00:57:00,hld,13.90
2022-04-11T00:58:00,hld,13.77
2022-04-11T00:59:00,hld,5.65
2022-04-11T01:00:00,hld,5.62
2022-04-11T01:01:00,hld,5.61
2022-04-11T01:02:00,hld,5.59
2022-04-11T01:03:00,hld,6.04
2022-04-11T01:04:00,hld,5.56
2022-04-11T01:05:00,hld,5.50
2022-04-11T01:06:00,hld,5.55
2022-04-11T01:07:00,hld,5.50
2022-04-11T01:08:00,hld,5.54
2022-04-11T01:09:00,hld,5.53
2022-04-11T01:10:00,hld,5.52
2022-04-11T01:11:00,hld,5.52
2022-04-11T01:12:00,hld,5.68
2022-04-11T01:13:00,hld,5.54
2022-04-11T01:14:00,hld,5.54
2022-04-11T01:15:00,hld,5.58
2022-04-11T01:16:00,hld,5.53
2022-04-11T01:17:00,hld,5.54
2022-04-11T01:18:00,hld,5.49
2022-04-11T01:19:00,hld,5.57
2022-04-11T01:20:00,hld,5.49
2022-04-11T01:21:00,hld,5.56
2022-04-11T01:22:00,hld,5.56
2022-04-11T01:23:00,hld,5.56
2022-04-11T01:24:00,hld,5.55
2022-04-11T01:25:00,hld,5.47
2022-04-11T01:26:00,hld,5.46
2022-04-11T01:27:00,hld,5.46
2022-04-11T01:28:00,hld,5.46
2022-04-11T01:29:00,hld,5.46
2022-04-11T01:30:00,hld,5.42
2022-04-11T01:31:00,hld,6.11
2022-04-11T01:32:00,hld,5.42
2022-04-11T01:33:00,hld,5.47
2022-04-11T01:34:00,hld,5.46
2022-04-11T01:35:00,hld,5.46
2022-04-11T01:36:00,hld,5.46
2022-04-11T01:37:00,hld,5.47
2022-04-11T01:38:00,hld,5.43
2022-04-11T01:39:00,hld,5.48
2022-04-11T01:40:00,hld,5.61
2022-04-11T01:41:00,hld,5.55
2022-04-11T01:42:00,hld,5.50
2022-04-11T01:43:00,hld,5.53
2022-04-11T01:44:00,hld,5.52
2022-04-11T01:45:00,hld,5.56
2022-04-11T01:46:00,hld,5.58
2022-04-11T01:47:00,hld,5.56
2022-04-11T01:48:00,hld,5.42
2022-04-11T01:49:00,hld,5.46
2022-04-11T01:50:00,hld,5.43
2022-04-11T01:51:00,hld,5.79
2022-04-11T01:52:00,hld,5.55
2022-04-11T01:53:00,hld,5.51
2022-04-11T01:54:00,hld,5.54
2022-04-11T01:55:00,hld,5.52
2022-04-11T01:56:00,hld,5.52
2022-04-11T01:57:00,hld,5.49
2022-04-11T01:58:00,hld,5.49
2022-04-11T01:59:00,hld,5.44
2022-04-11T02:00:00,hld,5.47
2022-04-11T02:01:00,hld,5.95
2022-04-11T02:02:00,hld,5.96
2022-04-11T02:03:00,hld,5.64
2022-04-11T02:04:00,hld,5.63
2022-04-11T02:05:00,hld,5.66
2022-04-11T02:06:00,hld,5.66
2022-04-11T02:07:00,hld,5.63
2022-04-11T02:08:00,hld,5.66
2022-04-11T02:09:00,hld,5.64
2022-04-11T02:10:00,hld,5.61
2022-04-11T02:11:00,hld,5.60
2022-04-11T02:12:00,hld,5.64
2022-04-11T02:13:00,hld,5.56
2022-04-11T02:14:00,hld,5.54
2022-04-11T02:15:00,hld,5.56
2022-04-11T02:16:00,hld,5.54
2022-04-11T02:17:00,hld,5.53
2022-04-11T02:18:00,hld,5.54
2022-04-11T02:19:00,hld,5.52
2022-04-11T02:20:00,hld,5.49
2022-04-11T02:21:00,hld,5.45
2022-04-11T02:22:00,hld,5.51
2022-04-11T02:23:00,hld,5.84
2022-04-11T02:24:00,hld,5.50
2022-04-11T02:25:00,hld,5.54
2022-04-11T02:26:00,hld,5.51
2022-04-11T02:27:00,hld,5.51
2022-04-11T02:28:00,hld,5.49
2022-04-11T02:29:00,hld,5.41
2022-04-11T02:30:00,hld,5.47
2022-04-11T02:31:00,hld,5.44
2022-04-11T02:32:00,hld,5.46
2022-04-11T02:33:00,hld,5.45
2022-04-11T02:34:00,hld,5.40
2022-04-11T02:35:00,hld,5.40
2022-04-11T02:36:00,hld,5.48
2022-04-11T02:37:00,hld,5.43
2022-04-11T02:38:00,hld,5.42
2022-04-11T02:39:00,hld,5.46
2022-04-11T02:40:00,hld,5.37
2022-04-11T02:41:00,hld,5.44
2022-04-11T02:42:00,hld,5.46
2022-04-11T02:43:00,hld,6.06
2022-04-11T02:44:00,hld,5.48
2022-04-11T02:45:00,hld,5.43
2022-04-11T02:46:00,hld,5.44
2022-04-11T02:47:00,hld,5.45
2022-04-11T02:48:00,hld,5.58
2022-04-11T02:49:00,hld,5.50
2022-04-11T02:50:00,hld,5.67
2022-04-11T02:51:00,hld,5.66
2022-04-11T02:52:00,hld,5.62
2022-04-11T02:53:00,hld,5.60
2022-04-11T02:54:00,hld,5.62
2022-04-11T02:55:00,hld,5.66
2022-04-11T02:56:00,hld,5.52
2022-04-11T02:57:00,hld,5.51
2022-04-11T02:58:00,hld,5.55
2022-04-11T02:59:00,hld,5.51
2022-04-11T03:00:00,hld,5.47
2022-04-11T03:01:00,hld,5.53
2022-04-11T03:02:00,hld,5.53
2022-04-11T03:03:00,hld,5.41
2022-04-11T03:04:00,hld,5.54
2022-04-11T03:05:00,hld,5.50
2022-04-11T03:06:00,hld,6.13
2022-04-11T03:07:00,hld,5.60
2022-04-11T03:08:00,hld,5.56
2022-04-11T03:09:00,hld,5.75
2022-04-11T03:10:00,hld,5.74
2022-04-11T03:11:00,hld,5.67
2022-04-11T03:12:00,hld,5.71
2022-04-11T03:13:00,hld,5.70
2022-04-11T03:14:00,hld,5.74
2022-04-11T03:15:00,hld,5.70
2022-04-11T03:16:00,hld,5.68
2022-04-11T03:17:00,hld,5.70
2022-04-11T03:18:00,hld,5.72
2022-04-11T03:19:00,hld,5.69
2022-04-11T03:20:00,hld,5.72
2022-04-11T03:21:00,hld,5.57
2022-04-11T03:22:00,hld,5.60
2022-04-11T03:23:00,hld,5.54
2022-04-11T03:24:00,hld,5.44
2022-04-11T03:25:00,hld,5.54
2022-04-11T03:26:00,hld,5.49
2022-04-11T03:27:00,hld,5.50
2022-04-11T03:28:00,hld,5.48
2022-04-11T03:29:00,hld,5.79
2022-04-11T03:30:00,hld,5.45
2022-04-11T03:31:00,hld,5.48
2022-04-11T03:32:00,hld,5.44
2022-04-11T03:33:00,hld,5.40
2022-04-11T03:34:00,hld,5.46
2022-04-11T03:35:00,hld,5.39
2022-04-11T03:36:00,hld,5.47
2022-04-11T03:37:00,hld,5.46
2022-04-11T03:38:00,hld,5.45
2022-04-11T03:39:00,hld,5.45
2022-04-11T03:40:00,hld,5.94
2022-04-11T03:41:00,hld,5.44
2022-04-11T03:42:00,hld,5.47
2022-04-11T03:43:00,hld,5.40
2022-04-11T03:44:00,hld,5.45
2022-04-11T03:45:00,hld,5.47
2022-04-11T03:46:00,hld,5.38
2022-04-11T03:47:00,hld,5.56
2022-04-11T03:48:00,hld,5.57
2022-04-11T03:49:00,hld,5.62
2022-04-11T03:50:00,hld,5.58
2022-04-11T03:51:00,hld,5.70
2022-04-11T03:52:00,hld,6.38
2022-04-11T03:53:00,hld,5.66
2022-04-11T03:54:00,hld,5.65
2022-04-11T03:55:00,hld,5.66
2022-04-11T03:56:00,hld,5.80
2022-04-11T03:57:00,hld,5.78
2022-04-11T03:58:00,hld,6.21
2022-04-11T03:59:00,hld,6.58
2022-04-11T04:00:00,hld,13.55
2022-04-11T04:01:00,hld,6.66
2022-04-11T04:02:00,hld,6.70
2022-04-11T04:03:00,hld,6.67
2022-04-11T04:04:00,hld,7.25
2022-04-11T04:05:00,hld,6.55
2022-04-11T04:06:00,hld,6.52
2022-04-11T04:07:00,hld,6.56
2022-04-11T04:08:00,hld,6.56
2022-04-11T04:09:00,hld,6.52
2022-04-11T04:10:00,hld,6.50
2022-04-11T04:11:00,hld,15.05
2022-04-11T04:12:00,hld,14.90
2022-04-11T04:13:00,hld,14.73
2022-04-11T04:14:00,hld,14.62
2022-04-11T04:15:00,hld,14.63
2022-04-11T04:16:00,hld,6.52
2022-04-11T04:17:00,hld,6.50
2022-04-11T04:18:00,hld,6.65
2022-04-11T04:19:00,hld,6.62
2022-04-11T04:20:00,hld,6.61
2022-04-11T04:21:00,hld,6.62
2022-04-11T04:22:00,hld,6.61
2022-04-11T04:23:00,hld,6.83
2022-04-11T04:24:00,hld,6.79
2022-04-11T04:25:00,hld,6.80
2022-04-11T04:26:00,hld,6.69
2022-04-11T04:27:00,hld,6.69
2022-04-11T04:28:00,hld,6.25
2022-04-11T04:29:00,hld,6.04
2022-04-11T04:30:00,hld,5.94
2022-04-11T04:31:00,hld,5.92
2022-04-11T04:32:00,hld,5.96
2022-04-11T04:33:00,hld,5.93
2022-04-11T04:34:00,hld,5.97
2022-04-11T04:35:00,hld,5.98
2022-04-11T04:36:00,hld,5.93
2022-04-11T04:37:00,hld,5.93
2022-04-11T04:38:00,hld,5.96
2022-04-11T04:39:00,hld,5.92
2022-04-11T04:40:00,hld,5.88
2022-04-11T04:41:00,hld,5.95
2022-04-11T04:42:00,hld,5.92
2022-04-11T04:43:00,hld,5.94
2022-04-11T04:44:00,hld,5.93
2022-04-11T04:45:00,hld,5.93
2022-04-11T04:46:00,hld,5.96
2022-04-11T04:47:00,hld,5.93
2022-04-11T04:48:00,hld,6.10
2022-04-11T04:49:00,hld,5.96
2022-04-11T04:50:00,hld,5.92
2022-04-11T04:51:00,hld,5.91
2022-04-11T04:52:00,hld,5.95
2022-04-11T04:53:00,hld,5.97
2022-04-11T04:54:00,hld,6.14
2022-04-11T04:55:00,hld,6.27
2022-04-11T04:56:00,hld,6.23
2022-04-11T04:57:00,hld,6.23
2022-04-11T04:58:00,hld,6.21
2022-04-11T04:59:00,hld,6.21
2022-04-11T05:00:00,hld,6.27
2022-04-11T05:01:00,hld,6.29
2022-04-11T05:02:00,hld,6.33
2022-04-11T05:03:00,hld,6.32
2022-04-11T05:04:00,hld,6.44
2022-04-11T05:05:00,hld,6.42
2022-04-11T05:06:00,hld,6.42
2022-04-11T05:07:00,hld,6.37
2022-04-11T05:08:00,hld,6.37
2022-04-11T05:09:00,hld,6.47
2022-04-11T05:10:00,hld,6.38
2022-04-11T05:11:00,hld,6.40
2022-04-11T05:12:00,hld,6.89
2022-04-11T05:13:00,hld,6.25
2022-04-11T05:14:00,hld,6.27
2022-04-11T05:15:00,hld,6.31
2022-04-11T05:16:00,hld,6.36
2022-04-11T05:17:00,hld,6.34
2022-04-11T05:18:00,hld,6.36
2022-04-11T05:19:00,hld,6.28
2022-04-11T05:20:00,hld,6.31
2022-04-11T05:21:00,hld,6.22
2022-04-11T05:22:00,hld,6.21
2022-04-11T05:23:00,hld,6.25
2022-04-11T05:24:00,hld,6.97
2022-04-11T05:25:00,hld,6.43
2022-04-11T05:26:00,hld,6.45
2022-04-11T05:27:00,hld,6.41
2022-04-11T05:28:00,hld,6.40
2022-04-11T05:29:00,hld,6.23
2022-04-11T05:30:00,hld,6.20
2022-04-11T05:31:00,hld,6.28
2022-04-11T05:32:00,hld,6.20
2022-04-11T05:33:00,hld,6.23
2022-04-11T05:34:00,hld,6.24
2022-04-11T05:35:00,hld,6.24
2022-04-11T05:36:00,hld,6.17
2022-04-11T05:37:00,hld,6.08
2022-04-11T05:38:00,hld,6.06
2022-04-11T05:39:00,hld,6.16
2022-04-11T05:40:00,hld,6.16
2022-04-11T05:41:00,hld,6.12
2022-04-11T05:42:00,hld,6.16
2022-04-11T05:43:00,hld,6.10
2022-04-11T05:44:00,hld,6.09
2022-04-11T05:45:00,hld,6.80
2022-04-11T05:46:00,hld,6.23
2022-04-11T05:47:00,hld,6.28
2022-04-11T05:48:00,hld,6.32
2022-04-11T05:49:00,hld,6.27
2022-04-11T05:50:00,hld,6.31
2022-04-11T05:51:00,hld,6.27
2022-04-11T05:52:00,hld,6.22
2022-04-11T05:53:00,hld,6.26
2022-04-11T05:54:00,hld,6.24
2022-04-11T05:55:00,hld,6.28
2022-04-11T05:56:00,hld,6.28
2022-04-11T05:57:00,hld,6.26
2022-04-11T05:58:00,hld,6.29
2022-04-11T05:59:00,hld,6.26
2022-04-11T06:00:00,hld,6.24
2022-04-11T06:01:00,hld,10.42
2022-04-11T06:02:00,hld,11.45
2022-04-11T06:03:00,hld,11.77
2022-04-11T06:04:00,hld,13.57
2022-04-11T06:05:00,hld,14.25
2022-04-11T06:06:00,hld,13.51
2022-04-11T06:07:00,hld,13.56
2022-04-11T06:08:00,hld,13.55
2022-04-11T06:09:00,hld,13.52
2022-04-11T06:10:00,hld,13.54
2022-04-11T06:11:00,hld,9.44
2022-04-11T06:12:00,hld,9.57
2022-04-11T06:13:00,hld,9.58
2022-04-11T06:14:00,hld,9.77
2022-04-11T06:15:00,hld,9.39
2022-04-11T06:16:00,hld,9.43
2022-04-11T06:17:00,hld,9.15
2022-04-11T06:18:00,hld,9.21
2022-04-11T06:19:00,hld,9.18
2022-04-11T06:20:00,hld,9.02
2022-04-11T06:21:00,hld,9.08
2022-04-11T06:22:00,hld,9.02
2022-04-11T06:23:00,hld,9.04
2022-04-11T06:24:00,hld,9.73
2022-04-11T06:25:00,hld,9.03
2022-04-11T06:26:00,hld,9.06
2022-04-11T06:27:00,hld,9.04
2022-04-11T06:28:00,hld,9.04
2022-04-11T06:29:00,hld,9.03
2022-04-11T06:30:00,hld,9.15
2022-04-11T06:31:00,hld,9.28
2022-04-11T06:32:00,hld,9.34
2022-04-11T06:33:00,hld,9.50
2022-04-11T06:34:00,hld,9.32
2022-04-11T06:35:00,hld,9.31
2022-04-11T06:36:00,hld,9.29
2022-04-11T06:37:00,hld,9.31
2022-04-11T06:38:00,hld,9.30
2022-04-11T06:39:00,hld,10.78
2022-04-11T06:40:00,hld,9.26
2022-04-11T06:41:00,hld,9.24
2022-04-11T06:42:00,hld,9.24
2022-04-11T06:43:00,hld,9.16
2022-04-11T06:44:00,hld,9.20
2022-04-11T06:45:00,hld,9.18
2022-04-11T06:46:00,hld,9.11
2022-04-11T06:47:00,hld,9.15
2022-04-11T06:48:00,hld,9.15
2022-04-11T06:49:00,hld,9.13
2022-04-11T06:50:00,hld,9.12
2022-04-11T06:51:00,hld,9.11
2022-04-11T06:52:00,hld,9.16
2022-04-11T06:53:00,hld,9.15
2022-04-11T06:54:00,hld,8.94
2022-04-11T06:55:00,hld,9.03
2022-04-11T06:56:00,hld,8.89
2022-04-11T06:57:00,hld,8.89
2022-04-11T06:58:00,hld,8.91
2022-04-11T06:59:00,hld,8.90
2022-04-11T07:00:00,hld,8.99
2022-04-11T07:01:00,hld,8.90
2022-04-11T07:02:00,hld,8.88
2022-04-11T07:03:00,hld,8.90
2022-04-11T07:04:00,hld,8.87
2022-04-11T07:05:00,hld,8.88
2022-04-11T07:06:00,hld,8.90
2022-04-11T07:07:00,hld,8.86
2022-04-11T07:08:00,hld,8.87
2022-04-11T07:09:00,hld,8.90
2022-04-11T07:10:00,hld,8.86
2022-04-11T07:11:00,hld,8.91
2022-04-11T07:12:00,hld,8.89
2022-04-11T07:13:00,hld,9.08
2022-04-11T07:14:00,hld,9.09
2022-04-11T07:15:00,hld,9.07
2022-04-11T07:16:00,hld,10.69
2022-04-11T07:17:00,hld,9.63
2022-04-11T07:18:00,hld,9.20
2022-04-11T07:19:00,hld,9.21
2022-04-11T07:20:00,hld,9.22
2022-04-11T07:21:00,hld,9.21
2022-04-11T07:22:00,hld,9.24
2022-04-11T07:23:00,hld,9.17
2022-04-11T07:24:00,hld,9.15
2022-04-11T07:25:00,hld,9.17
2022-04-11T07:26:00,hld,9.14
2022-04-11T07:27:00,hld,9.05
2022-04-11T07:28:00,hld,9.05
2022-04-11T07:29:00,hld,9.01
2022-04-11T07:30:00,hld,9.02
2022-04-11T07:31:00,hld,9.05
2022-04-11T07:32:00,hld,9.07
2022-04-11T07:33:00,hld,9.11
2022-04-11T07:34:00,hld,9.05
2022-04-11T07:35:00,hld,9.76
2022-04-11T07:36:00,hld,9.24
2022-04-11T07:37:00,hld,9.17
2022-04-11T07:38:00,hld,9.24
2022-04-11T07:39:00,hld,17.80
2022-04-11T07:40:00,hld,17.57
2022-04-11T07:41:00,hld,17.52
2022-04-11T07:42:00,hld,17.84
2022-04-11T07:43:00,hld,17.91
2022-04-11T07:44:00,hld,10.23
2022-04-11T07:45:00,hld,10.13
2022-04-11T07:46:00,hld,10.23
2022-04-11T07:47:00,hld,10.20
2022-04-11T07:48:00,hld,10.17
2022-04-11T07:49:00,hld,10.24
2022-04-11T07:50:00,hld,10.20
2022-04-11T07:51:00,hld,10.20
2022-04-11T07:52:00,hld,10.12
2022-04-11T07:53:00,hld,10.08
2022-04-11T07:54:00,hld,9.75
2022-04-11T07:55:00,hld,9.79
2022-04-11T07:56:00,hld,9.78
2022-04-11T07:57:00,hld,9.75
2022-04-11T07:58:00,hld,9.70
2022-04-11T07:59:00,hld,9.74
2022-04-11T08:00:00,hld,9.77
2022-04-11T08:01:00,hld,9.69
2022-04-11T08:02:00,hld,9.48
2022-04-11T08:03:00,hld,9.50
2022-04-11T08:04:00,hld,10.95
2022-04-11T08:05:00,hld,9.50
2022-04-11T08:06:00,hld,9.49
2022-04-11T08:07:00,hld,9.49
2022-04-11T08:08:00,hld,9.51
2022-04-11T08:09:00,hld,9.47
2022-04-11T08:10:00,hld,10.16
2022-04-11T08:11:00,hld,9.50
2022-04-11T08:12:00,hld,9.78
2022-04-11T08:13:00,hld,9.79
2022-04-11T08:14:00,hld,9.94
2022-04-11T08:15:00,hld,10.86
2022-04-11T08:16:00,hld,10.11
2022-04-11T08:17:00,hld,10.15
2022-04-11T08:18:00,hld,10.19
2022-04-11T08:19:00,hld,10.83
2022-04-11T08:20:00,hld,10.82
2022-04-11T08:21:00,hld,10.14
2022-04-11T08:22:00,hld,14.19
2022-04-11T08:23:00,hld,14.10
2022-04-11T08:24:00,hld,14.07
2022-04-11T08:25:00,hld,14.10
2022-04-11T08:26:00,hld,13.65
2022-04-11T08:27:00,hld,13.63
2022-04-11T08:28:00,hld,13.65
2022-04-11T08:29:00,hld,14.31
2022-04-11T08:30:00,hld,10.29
2022-04-11T08:31:00,hld,10.27
2022-04-11T08:32:00,hld,9.59
2022-04-11T08:33:00,hld,9.29
2022-04-11T08:34:00,hld,9.36
2022-04-11T08:35:00,hld,9.30
2022-04-11T08:36:00,hld,9.29
2022-04-11T08:37:00,hld,9.30
2022-04-11T08:38:00,hld,9.28
2022-04-11T08:39:00,hld,9.29
2022-04-11T08:40:00,hld,9.31
2022-04-11T08:41:00,hld,9.92
2022-04-11T08:42:00,hld,9.29
2022-04-11T08:43:00,hld,9.34
2022-04-11T08:44:00,hld,9.27
2022-04-11T08:45:00,hld,8.89
2022-04-11T08:46:00,hld,8.86
2022-04-11T08:47:00,hld,8.83
2022-04-11T08:48:00,hld,8.87
2022-04-11T08:49:00,hld,9.46
2022-04-11T08:50:00,hld,9.46
2022-04-11T08:51:00,hld,11.01
2022-04-11T08:52:00,hld,9.42
2022-04-11T08:53:00,hld,9.54
2022-04-11T08:54:00,hld,9.55
2022-04-11T08:55:00,hld,9.52
2022-04-11T08:56:00,hld,9.59
2022-04-11T08:57:00,hld,9.45
2022-04-11T08:58:00,hld,9.43
2022-04-11T08:59:00,hld,9.52
2022-04-11T09:00:00,hld,9.44
2022-04-11T09:01:00,hld,9.44
2022-04-11T09:02:00,hld,9.61
2022-04-11T09:03:00,hld,10.08
2022-04-11T09:04:00,hld,9.97
2022-04-11T09:05:00,hld,10.13
2022-04-11T09:06:00,hld,10.17
2022-04-11T09:07:00,hld,10.25
2022-04-11T09:08:00,hld,10.25
2022-04-11T09:09:00,hld,10.23
2022-04-11T09:10:00,hld,10.30
2022-04-11T09:11:00,hld,10.25
2022-04-11T09:12:00,hld,10.19
2022-04-11T09:13:00,hld,10.25
2022-04-11T09:14:00,hld,10.27
2022-04-11T09:15:00,hld,10.23
2022-04-11T09:16:00,hld,10.21
2022-04-11T09:17:00,hld,10.24
2022-04-11T09:18:00,hld,10.28
2022-04-11T09:19:00,hld,10.64
2022-04-11T09:20:00,hld,10.25
2022-04-11T09:21:00,hld,10.25
2022-04-11T09:22:00,hld,10.24
2022-04-11T09:23:00,hld,10.21
2022-04-11T09:24:00,hld,10.27
2022-04-11T09:25:00,hld,10.20
2022-04-11T09:26:00,hld,10.40
2022-04-11T09:27:00,hld,10.32
2022-04-11T09:28:00,hld,10.36
2022-04-11T09:29:00,hld,10.21
2022-04-11T09:30:00,hld,10.22
2022-04-11T09:31:00,hld,10.55
2022-04-11T09:32:00,hld,10.24
2022-04-11T09:33:00,hld,10.25
2022-04-11T09:34:00,hld,10.20
2022-04-11T09:35:00,hld,10.24
2022-04-11T09:36:00,hld,10.22
2022-04-11T09:37:00,hld,10.27
2022-04-11T09:38:00,hld,10.27
2022-04-11T09:39:00,hld,10.28
2022-04-11T09:40:00,hld,10.26
2022-04-11T09:41:00,hld,10.21
2022-04-11T09:42:00,hld,10.20
2022-04-11T09:43:00,hld,10.15
2022-04-11T09:44:00,hld,10.16
2022-04-11T09:45:00,hld,10.13
2022-04-11T09:46:00,hld,10.10
2022-04-11T09:47:00,hld,10.10
2022-04-11T09:48:00,hld,10.00
2022-04-11T09:49:00,hld,9.96
2022-04-11T09:50:00,hld,10.56
2022-04-11T09:51:00,hld,10.23
2022-04-11T09:52:00,hld,9.96
2022-04-11T09:53:00,hld,9.94
2022-04-11T09:54:00,hld,10.02
2022-04-11T09:55:00,hld,10.01
2022-04-11T09:56:00,hld,9.99
2022-04-11T09:57:00,hld,10.00
2022-04-11T09:58:00,hld,10.59
2022-04-11T09:59:00,hld,10.01
2022-04-11T10:00:00,hld,10.00
2022-04-11T10:01:00,hld,10.04
2022-04-11T10:02:00,hld,10.08
2022-04-11T10:03:00,hld,10.67
2022-04-11T10:04:00,hld,10.07
2022-04-11T10:05:00,hld,10.14
2022-04-11T10:06:00,hld,10.18
2022-04-11T10:07:00,hld,10.22
2022-04-11T10:08:00,hld,10.14
2022-04-11T10:09:00,hld,10.18
2022-04-11T10:10:00,hld,10.24
2022-04-11T10:11:00,hld,10.16
2022-04-11T10:12:00,hld,10.66
2022-04-11T10:13:00,hld,10.86
2022-04-11T10:14:00,hld,11.02
2022-04-11T10:15:00,hld,11.01
2022-04-11T10:16:00,hld,10.99
2022-04-11T10:17:00,hld,10.95
2022-04-11T10:18:00,hld,15.00
2022-04-11T10:19:00,hld,15.12
2022-04-11T10:20:00,hld,15.01
2022-04-11T10:21:00,hld,14.82
2022-04-11T10:22:00,hld,14.88
2022-04-11T10:23:00,hld,14.81
2022-04-11T10:24:00,hld,14.80
2022-04-11T10:25:00,hld,14.89
2022-04-11T10:26:00,hld,10.84
2022-04-11T10:27:00,hld,10.93
2022-04-11T10:28:00,hld,10.87
2022-04-11T10:29:00,hld,10.85
2022-04-11T10:30:00,hld,10.88
2022-04-11T10:31:00,hld,10.88
2022-04-11T10:32:00,hld,10.88
2022-04-11T10:33:00,hld,10.71
2022-04-11T10:34:00,hld,10.81
2022-04-11T10:35:00,hld,11.28
2022-04-11T10:36:00,hld,10.78
2022-04-11T10:37:00,hld,10.80
2022-04-11T10:38:00,hld,10.80
2022-04-11T10:39:00,hld,10.79
2022-04-11T10:40:00,hld,10.81
2022-04-11T10:41:00,hld,10.81
2022-04-11T10:42:00,hld,10.79
2022-04-11T10:43:00,hld,10.80
2022-04-11T10:44:00,hld,10.82
2022-04-11T10:45:00,hld,10.74
2022-04-11T10:46:00,hld,10.77
2022-04-11T10:47:00,hld,10.61
2022-04-11T10:48:00,hld,10.63
2022-04-11T10:49:00,hld,10.75
2022-04-11T10:50:00,hld,12.26
2022-04-11T10:51:00,hld,10.66
2022-04-11T10:52:00,hld,10.70
2022-04-11T10:53:00,hld,10.66
2022-04-11T10:54:00,hld,10.67
2022-04-11T10:55:00,hld,10.65
2022-04-11T10:56:00,hld,10.66
2022-04-11T10:57:00,hld,19.80
2022-04-11T10:58:00,hld,19.74
2022-04-11T10:59:00,hld,19.65
2022-04-11T11:00:00,hld,20.06
2022-04-11T11:01:00,hld,11.25
2022-04-11T11:02:00,hld,11.28
2022-04-11T11:03:00,hld,11.32
2022-04-11T11:04:00,hld,11.38
2022-04-11T11:05:00,hld,11.28
2022-04-11T11:06:00,hld,11.34
2022-04-11T11:07:00,hld,11.29
2022-04-11T11:08:00,hld,11.22
2022-04-11T11:09:00,hld,11.28
2022-04-11T11:10:00,hld,11.50
2022-04-11T11:11:00,hld,10.62
2022-04-11T11:12:00,hld,10.79
2022-04-11T11:13:00,hld,10.72
2022-04-11T11:14:00,hld,10.78
2022-04-11T11:15:00,hld,10.76
2022-04-11T11:16:00,hld,10.80
2022-04-11T11:17:00,hld,10.81
2022-04-11T11:18:00,hld,10.78
2022-04-11T11:19:00,hld,10.80
2022-04-11T11:20:00,hld,10.78
2022-04-11T11:21:00,hld,10.71
2022-04-11T11:22:00,hld,10.73
2022-04-11T11:23:00,hld,11.25
2022-04-11T11:24:00,hld,10.68
2022-04-11T11:25:00,hld,10.75
2022-04-11T11:26:00,hld,10.75
2022-04-11T11:27:00,hld,10.69
2022-04-11T11:28:00,hld,10.74
2022-04-11T11:29:00,hld,10.68
2022-04-11T11:30:00,hld,10.68
2022-04-11T11:31:00,hld,10.49
2022-04-11T11:32:00,hld,10.62
2022-04-11T11:33:00,hld,11.03
2022-04-11T11:34:00,hld,10.55
2022-04-11T11:35:00,hld,10.75
2022-04-11T11:36:00,hld,10.57
2022-04-11T11:37:00,hld,10.52
2022-04-11T11:38:00,hld,10.55
2022-04-11T11:39:00,hld,10.51
2022-04-11T11:40:00,hld,10.46
2022-04-11T11:41:00,hld,10.48
2022-04-11T11:42:00,hld,10.40
2022-04-11T11:43:00,hld,10.47
2022-04-11T11:44:00,hld,10.43
2022-04-11T11:45:00,hld,10.53
2022-04-11T11:46:00,hld,10.45
2022-04-11T11:47:00,hld,10.50
2022-04-11T11:48:00,hld,10.48
2022-04-11T11:49:00,hld,10.43
2022-04-11T11:50:00,hld,10.43
2022-04-11T11:51:00,hld,10.32
2022-04-11T11:52:00,hld,10.29
2022-04-11T11:53:00,hld,14.29
2022-04-11T11:54:00,hld,14.98
2022-04-11T11:55:00,hld,14.31
2022-04-11T11:56:00,hld,14.41
2022-04-11T11:57:00,hld,14.29
2022-04-11T11:58:00,hld,14.30
2022-04-11T11:59:00,hld,14.48
2022-04-11T12:00:00,hld,14.41
2022-04-11T12:01:00,hld,10.32
2022-04-11T12:02:00,hld,10.34
2022-04-11T12:03:00,hld,10.23
2022-04-11T12:04:00,hld,10.08
2022-04-11T12:05:00,hld,10.17
2022-04-11T12:06:00,hld,10.11
2022-04-11T12:07:00,hld,10.23
2022-04-11T12:08:00,hld,10.12
2022-04-11T12:09:00,hld,10.30
2022-04-11T12:10:00,hld,10.28
2022-04-11T12:11:00,hld,10.30
2022-04-11T12:12:00,hld,10.24
2022-04-11T12:13:00,hld,10.31
2022-04-11T12:14:00,hld,10.24
2022-04-11T12:15:00,hld,10.31
2022-04-11T12:16:00,hld,10.33
2022-04-11T12:17:00,hld,10.29
2022-04-11T12:18:00,hld,10.09
2022-04-11T12:19:00,hld,10.03
2022-04-11T12:20:00,hld,10.08
2022-04-11T12:21:00,hld,10.15
2022-04-11T12:22:00,hld,10.16
2022-04-11T12:23:00,hld,10.13
2022-04-11T12:24:00,hld,10.13
2022-04-11T12:25:00,hld,10.12
2022-04-11T12:26:00,hld,10.10
2022-04-11T12:27:00,hld,10.11
2022-04-11T12:28:00,hld,10.09
2022-04-11T12:29:00,hld,10.10
2022-04-11T12:30:00,hld,10.17
2022-04-11T12:31:00,hld,10.10
2022-04-11T12:32:00,hld,9.87
2022-04-11T12:33:00,hld,9.69
2022-04-11T12:34:00,hld,9.30
2022-04-11T12:35:00,hld,9.25
2022-04-11T12:36:00,hld,9.74
2022-04-11T12:37:00,hld,9.70
2022-04-11T12:38:00,hld,9.74
2022-04-11T12:39:00,hld,9.73
2022-04-11T12:40:00,hld,9.83
2022-04-11T12:41:00,hld,10.13
2022-04-11T12:42:00,hld,10.23
2022-04-11T12:43:00,hld,10.59
2022-04-11T12:44:00,hld,10.20
2022-04-11T12:45:00,hld,10.26
2022-04-11T12:46:00,hld,10.36
2022-04-11T12:47:00,hld,10.39
2022-04-11T12:48:00,hld,10.35
2022-04-11T12:49:00,hld,10.38
2022-04-11T12:50:00,hld,10.28
2022-04-11T12:51:00,hld,10.36
2022-04-11T12:52:00,hld,10.06
2022-04-11T12:53:00,hld,10.13
2022-04-11T12:54:00,hld,10.20
2022-04-11T12:55:00,hld,10.20
2022-04-11T12:56:00,hld,10.19
2022-04-11T12:57:00,hld,10.16
2022-04-11T12:58:00,hld,10.50
2022-04-11T12:59:00,hld,10.46
2022-04-11T13:00:00,hld,10.41
2022-04-11T13:01:00,hld,10.52
2022-04-11T13:02:00,hld,10.47
2022-04-11T13:03:00,hld,10.69
2022-04-11T13:04:00,hld,10.51
2022-04-11T13:05:00,hld,10.41
2022-04-11T13:06:00,hld,10.51
2022-04-11T13:07:00,hld,10.88
2022-04-11T13:08:00,hld,10.65
2022-04-11T13:09:00,hld,10.64
2022-04-11T13:10:00,hld,10.67
2022-04-11T13:11:00,hld,10.57
2022-04-11T13:12:00,hld,10.58
2022-04-11T13:13:00,hld,10.44
2022-04-11T13:14:00,hld,10.50
2022-04-11T13:15:00,hld,10.28
2022-04-11T13:16:00,hld,10.33
2022-04-11T13:17:00,hld,10.37
2022-04-11T13:18:00,hld,10.29
2022-04-11T13:19:00,hld,10.38
2022-04-11T13:20:00,hld,10.32
2022-04-11T13:21:00,hld,10.28
2022-04-11T13:22:00,hld,10.31
2022-04-11T13:23:00,hld,10.36
2022-04-11T13:24:00,hld,10.25
2022-04-11T13:25:00,hld,10.32
2022-04-11T13:26:00,hld,10.45
2022-04-11T13:27:00,hld,10.48
2022-04-11T13:28:00,hld,10.53
2022-04-11T13:29:00,hld,10.52
2022-04-11T13:30:00,hld,10.59
2022-04-11T13:31:00,hld,10.50
2022-04-11T13:32:00,hld,10.48
2022-04-11T13:33:00,hld,10.44
2022-04-11T13:34:00,hld,10.42